Tracking 19800 objects as of 23-Jul-2019
HD Live streaming from Space Station
objects crossing your sky now

COSMOS 1607 FUEL CORE

Track COSMOS 1607 FUEL CORE now!
10-day predictions


NORAD ID: 15503
Int'l Code: 1984-112C
Perigee: 936.3 km
Apogee: 952.9 km
Inclination: 65.0 °
Period: 103.8 minutes
Semi major axis: 7315 km
RCS: 0.1774 m2 (medium)
Launch date: October 31, 1984
Source: Commonwealth of Independent States (former USSR) (CIS)
Launch site: TYURATAM MISSILE AND SPACE COMPLEX (TTMTR)

Note: This is SATELLITE DEBRIS
aabbcc
Your satellite tracking list
Your tracking list is empty




NASA's NSSDC Master Catalog

Two Line Element Set (TLE):
1 15503U 84112C   19204.52812759 -.00000090  00000-0 -72427-6 0  9994
2 15503  64.9929 246.4534 0011344  87.0420 273.1940 13.87491939746598
Source of the keplerian elements: AFSPC